This is the latest recevied weather packets stored in our database for station/object KC3SOZ. If no packets are shown the sender has not sent any weather packets the latest 10 day(s).
| Time | Temp. | Humidity | Pressure | Rain* | Wind** | Luminosity | Snow |
|---|---|---|---|---|---|---|---|
| 1778173258 | 13.89° C | 51% | 1011.6 hPa | 0 mm | - | 785 W/m² | - |
| 1778172954 | 14.44° C | 47% | 1011.8 hPa | 0 mm | - | 874 W/m² | - |
| 1778172650 | 14.44° C | 56% | 1011.7 hPa | 0 mm | - | 859 W/m² | - |
| 1778172346 | 13.89° C | 51% | 1011.8 hPa | 0 mm | - | 868 W/m² | - |
| 1778172044 | 13.89° C | 57% | 1011.8 hPa | 0 mm | - | 870 W/m² | - |
| 1778171740 | 13.89° C | 48% | 1012.1 hPa | 0 mm | - | 154 W/m² | - |
| 1778171433 | 14.44° C | 47% | 1011.9 hPa | 0 mm | - | 854 W/m² | - |
| 1778171133 | 13.89° C | 49% | 1012.3 hPa | 0 mm | - | 847 W/m² | - |
| 1778170830 | 14.44° C | 48% | 1012.2 hPa | 0 mm | - | 834 W/m² | - |
| 1778170526 | 13.89° C | 54% | 1012.1 hPa | 0 mm | - | 846 W/m² | - |
| 1778170224 | 13.89° C | 49% | 1012.3 hPa | 0 mm | - | 835 W/m² | - |
| 1778169919 | 13.89° C | 53% | 1012.4 hPa | 0 mm | - | 824 W/m² | - |
| 1778169616 | 13.89° C | 48% | 1012.2 hPa | 0 mm | - | 818 W/m² | - |
| 1778169311 | 13.89° C | 52% | 1012.4 hPa | 0 mm | - | 815 W/m² | - |
| 1778169009 | 13.89° C | 48% | 1012.1 hPa | 0 mm | - | 805 W/m² | - |
| 1778168705 | 13.89° C | 52% | 1012.3 hPa | 0 mm | - | 797 W/m² | - |
| 1778168403 | 13.89° C | 54% | 1012.4 hPa | 0 mm | - | 789 W/m² | - |
| 1778168099 | 13.33° C | 50% | 1012.6 hPa | 0 mm | - | 783 W/m² | - |
| 1778167795 | 13.33° C | 48% | 1012.7 hPa | 0 mm | - | 783 W/m² | - |
| 1778167491 | 13.89° C | 52% | 1012.6 hPa | 0 mm | - | 776 W/m² | - |
| 1778167188 | 13.89° C | 53% | 1012.8 hPa | 0 mm | - | 786 W/m² | - |
| 1778166884 | 13.33° C | 50% | 1013 hPa | 0 mm | - | 767 W/m² | - |
| 1778166581 | 13.89° C | 51% | 1013.3 hPa | 0 mm | - | 420 W/m² | - |
| 1778166278 | 13.89° C | 57% | 1013.3 hPa | 0 mm | - | 744 W/m² | - |
| 1778165974 | 13.89° C | 58% | 1013.4 hPa | 0 mm | - | 734 W/m² | - |
* Rain latest hour (hover to see other rain measurements)
** Current wind speed in m/s (hover to see current wind gust speed)